Preview of NWS' New Version of Forecast
This preview is not operational and should not be used for support decisions.

Regional Weather Roundup (RWR)

Issued by National Weather Service (NWS)

                            
000
ASUS45 KABQ 190801
RWRNM 
NEW MEXICO REGIONAL WEATHER ROUNDUP
NATIONAL WEATHER SERVICE ALBUQUERQUE NM
200 AM MDT SUN MAY 19 2019

NOTE: "FAIR" MEANS FEW OR NO CLOUDS BELOW 12,000 FEET AGL WITH NO
       SIGNIFICANT WEATHER OR OBSTRUCTIONS TO VISION.

      THIS PRODUCT IS RELEASED AS TWO VERSIONS.  ONE VERSION NEAR
      THE TOP OF THE HOUR CONTAINING PRELIMINARY DATA FROM ALBUQUERQUE
      AND OTHER STATIONS.  A FINAL VERSION WITH ADDITIONAL DATA IS 
      ISSUED ABOUT 10 MINUTES AFTER THE HOUR.
 
NMZ501-503-504-510>518-190900-
NORTHWEST PLATEAU/NORTHCENTRAL MOUNTAINS
  
CITY           SKY/WX    TMP DP  RH WIND       PRES   REMARKS
FARMINGTON     FAIR      47  31  53 E8        29.93S                  
LOS ALAMOS       N/A     46  18  31 CALM      30.02F                  
SANTA FE       FAIR      42  19  39 N12       29.97F                  
ANGEL FIRE       N/A     32  20  62 SE7       30.03F WCI  26          

$$
NMZ402-403-502-505>509-190900-
WESTCENTRAL MOUNTAINS/SOUTHWEST MOUNTAINS
  
CITY           SKY/WX    TMP DP  RH WIND       PRES   REMARKS
GALLUP         FAIR      41  26  55 CALM      29.99F                  
GRANTS         FAIR      41  16  35 CALM      30.02F                  
SILVER CITY    FAIR      46  14  27 NW13      29.99F                  

$$
NMZ407-409-411-412-190900-
SOUTHERN DESERTS
  
CITY           SKY/WX    TMP DP  RH WIND       PRES   REMARKS
DEMING         FAIR      52  14  22 SW8       29.96S                  
LAS CRUCES     FAIR      54  10  17 W6        29.96S                  
HOLLOMAN AFB   FAIR      58  15  18 NE6       29.94S                  
ALAMOGORDO     FAIR      54  12  19 CALM      29.93S                  
T OR C         FAIR      58  13  17 W5        29.94F                  

$$
NMZ519>523-190900-
CENTRAL VALLEYS/CENTRAL HIGHLANDS
  
CITY           SKY/WX    TMP DP  RH WIND       PRES   REMARKS
ALBUQUERQUE    FAIR      50  23  34 S6        29.95F                  
DOUBLE EAGLE   FAIR      41  20  42 CALM      29.97S                  
MORIARTY ARPT  FAIR      40  23  51 CALM      30.00S                  
CLINES CORNERS FAIR      39  17  41 W8        30.01F WCI  33          
BELEN          FAIR      52  16  24 CALM      29.95F                  
SOCORRO        FAIR      55  15  21 SW5       29.95S                  

$$
NMZ524>526-539-540-190900-
SOUTHCENTRAL MOUNTAINS
  
CITY           SKY/WX    TMP DP  RH WIND       PRES   REMARKS
RUIDOSO        FAIR      48  10  21 SW6       30.06S                  

$$
NMZ527>531-190900-
NORTHEAST HIGHLANDS/NORTHEAST PLAINS
  
CITY           SKY/WX    TMP DP  RH WIND       PRES   REMARKS
LAS VEGAS      FAIR      49  16  26 W5        29.98F                  
RATON          FAIR      38  25  59 NW13      29.95F WCI  30          
CLAYTON        FAIR      38  29  70 N8        29.94R WCI  32          

$$
NMZ532>537-190900-
EASTCENTRAL PLAINS
  
CITY           SKY/WX    TMP DP  RH WIND       PRES   REMARKS
SANTA ROSA     FAIR      48  20  33 CALM      29.92S                  
TUCUMCARI      FAIR      49  25  39 S3        29.88S                  
CANNON AFB     FAIR      50  19  29 N7        29.92S                  
CLOVIS AIRPORT FAIR      46  23  40 N9        29.92R                  

$$
NMZ028-029-538-190900-
SOUTHEAST PLAINS
  
CITY           SKY/WX    TMP DP  RH WIND       PRES   REMARKS
ROSWELL        FAIR      56  20  24 N7        29.89R                  
ARTESIA        FAIR      57  14  18 N10       29.89R                  
CARLSBAD       FAIR      63  15  15 W10       29.85F                  
HOBBS          FAIR      52  16  24 NW8       29.90F                  


$$